Home   Weather   Recklinghausen   Past weeks

Flag for Germany Past Weather in Recklinghausen, North Rhine-Westphalia, Germany — Yesterday and Last 2 Weeks

Now
91 °F

Passing clouds.


Feels Like: 90 °F
Forecast: 59 / 76 °F
Wind: 14 mph from West

Location: Dortmund / Wickede

Current Time: Jun 22, 2017 at 2:03:50 pm

Latest Report: Jun 22, 2017 at 1:20 pm


Visibility: N/A

Pressure: 29.83 "Hg

Humidity: 32%

Dew Point: 57 °F

Location of RecklinghausenLocation

Past Weather in Recklinghausen — Graph

°F

Recklinghausen Temperature Yesterday

Maximum temperature yesterday: 81 °F (at 3:50 pm)
Minimum temperature yesterday: 54 °F (at 5:20 am)
Average temperature yesterday: 70 °F

High & Low Weather Summary for the Past Weeks

 TemperatureHumidityPressure
High90 °F (Jun 22, 11:20 am)88% (Jun 9, 1:50 pm)30.30 "Hg (Jun 9, 1:50 pm)
Low48 °F (Jun 10, 5:20 am)27% (Jun 19, 2:50 pm)29.80 "Hg (Jun 7, 12:20 pm)
Average67 °F57%30.05 "Hg
* Reported Jun 7 12:20 pm — Jun 22 12:50 pm, Recklinghausen. Weather by CustomWeather, © 2017

Note: Actual official high and low records may vary slightly from our data, if they occured in-between our weather recording intervals... More about our weather records

Advertising

Recklinghausen Weather History for the Previous 24 Hours

Scroll right to see more
 ConditionsComfort  
Time TempWeatherWind HumidityBarometerVisibility
12:50 pm
Thu, Jun 22
90 °FPassing clouds.18 mph31%29.83 "HgN/A
12:20 pm90 °FSunny.18 mph31%29.83 "Hg10 mi
11:50 am90 °FPassing clouds.16 mph31%29.83 "HgN/A
11:20 am90 °FSunny.14 mph31%29.83 "Hg10 mi
10:50 am88 °FSunny.13 mph33%29.86 "Hg10 mi
10:20 am84 °FPassing clouds.12 mph37%29.86 "HgN/A
9:50 am82 °FPassing clouds.12 mph40%29.86 "HgN/A
9:20 am79 °FSunny.12 mph48%29.86 "Hg10 mi
8:50 am77 °FSunny.13 mph51%29.89 "Hg10 mi
8:20 am75 °FSunny.12 mph50%29.89 "Hg10 mi
7:50 am72 °FSunny.10 mph57%29.89 "Hg10 mi
7:20 am72 °FSunny.12 mph57%29.89 "Hg10 mi
6:50 am70 °FSunny.9 mph57%29.89 "Hg10 mi
6:20 am66 °FSunny.12 mph68%29.89 "Hg10 mi
5:50 am66 °FSunny.9 mph68%29.89 "Hg10 mi
5:20 am63 °FPassing clouds.7 mph73%29.92 "HgN/A
4:50 am64 °FClear.8 mph68%29.92 "Hg10 mi
4:20 am64 °FClear.2 mph73%29.92 "Hg10 mi
3:50 am64 °FClear.7 mph73%29.92 "Hg10 mi
3:20 am66 °FClear.7 mph68%29.92 "Hg10 mi
12:20 am68 °FClear.5 mph64%29.98 "Hg10 mi
11:50 pm
Wed, Jun 21
70 °FClear.5 mph57%29.98 "Hg10 mi
11:20 pm70 °FClear.6 mph57%29.98 "Hg10 mi
9:50 pm73 °FClear.3 mph53%29.98 "Hg10 mi
9:20 pm73 °FSunny.3 mph50%29.98 "Hg10 mi
8:50 pm75 °FSunny.6 mph50%29.98 "Hg10 mi
8:20 pm77 °FSunny.7 mph44%29.98 "Hg10 mi
7:50 pm77 °FPassing clouds.7 mph47%29.98 "HgN/A
7:20 pm79 °FPassing clouds.6 mph42%29.98 "HgN/A
6:50 pm79 °FPassing clouds.6 mph42%29.98 "HgN/A
6:20 pm79 °FPassing clouds.7 mph42%29.98 "HgN/A
5:50 pm79 °FPassing clouds.7 mph45%30.01 "HgN/A
5:20 pm81 °FPassing clouds.7 mph37%30.01 "HgN/A
4:50 pm81 °FPassing clouds.6 mph39%30.01 "HgN/A
4:20 pm79 °FPassing clouds.5 mph42%30.01 "HgN/A
3:50 pm81 °FPassing clouds.5 mph42%30.01 "HgN/A
3:20 pm79 °FSunny.3 mph42%30.04 "Hg10 mi
2:50 pm79 °FPassing clouds.6 mph42%30.04 "HgN/A
Weather by CustomWeather, © 2017

See weather overviewHow to use our weather pages